Tiempo atmosférico en la estación meteorológica de Valleseco, Las Palmas (900 m.)



Fecha
DESCASC
Temp. máxima en grados centígrados (hora)
DESCASC
Temp. mínima en grados centígrados (hora)
DESCASC
Temp. media en grados centígrados
DESCASC
Racha de viento máxima en m/sg (hora)
DESCASC
Velocidad máxima media en intervalos de 10 minutos(hora)
DESCASC
Precipitaciones diarias en mm
DESCASC
Precipitaciones de 00:00 a 06:00 en mm
DESCASC
Precipitaciones de 06:00 a 12:00 en mm
DESCASC
Precipitaciones de 12:00 a 18:00 en mm
DESCASC
Precipitaciones de 18:00 a 24:00 en mm
DESCASC
25-02-2021 12.9 (12:10) 7.2 (23:30) 10 9.44 (15:40) 5 (15:10) 31.4 0.2 0.4 30.2 0.6
24-02-2021 15.5 (13:50) 9.2 (03:30) 12.3 5.83 (14:00) 2.78 (08:20) 0 0 0 0 0
23-02-2021 16.1 (13:00) 8.8 (21:30) 12.5 7.5 (09:10) 5 (09:40) 0.6 0 0 0.4 0.2
22-02-2021 17 (15:50) 8.2 (07:00) 12.6 6.39 (07:40) 4.17 (07:10) 0 0 0 0 0
21-02-2021 14.9 (15:30) 8.7 (00:00) 11.8 12.22 (03:30) 7.5 (03:30) 12.4 12.2 0 0.2 0
20-02-2021 21.8 (14:40) 10.4 (00:00) 16.1 19.72 (18:50) 8.61 (18:40) 0.8 0 0 0 0.8
19-02-2021 19.9 (12:40) 11.1 (00:00) 15.5 6.67 (07:10) 5.56 (04:00) 0 0 0 0 0
18-02-2021 17.9 (15:40) 8.1 (00:00) 13 7.78 (12:40) 6.11 (00:20) 0 0 0 0 0
17-02-2021 17.9 (14:20) 9.2 (00:00) 13.5 15.28 (04:10) 10.28 (04:10) 0 0 0 0 0
16-02-2021 15.8 (00:20) 11.1 (00:00) 13.5 20 (03:00) 14.17 (03:50) 0 0 0 0 0
15-02-2021 20.2 (14:40) 15.7 (00:00) 18 17.78 (21:20) 12.22 (21:20) 0 0 0 0 0
14-02-2021 20.1 (15:30) 9.8 (00:00) 15 6.67 (22:00) 4.72 (00:30) 0 0 0 0 0
13-02-2021 17.4 (14:40) 9.4 (00:00) 13.4 6.39 (23:10) 4.44 (23:59) 0 0 0 0 0
12-02-2021 13.8 (13:10) 9.9 (00:00) 11.8 6.11 (00:40) 3.89 (00:40) 3.6 1.4 1 0.8 0.4
11-02-2021 16 (13:30) 8.4 (00:00) 12.2 7.78 (14:00) 4.72 (14:30) 0.8 0 0 0 0.8
10-02-2021 15.7 (11:40) 9.1 (00:00) 12.4 3.61 (11:40) 2.22 (22:10) 0 0 0 0 0
09-02-2021 16.8 (14:20) 8.4 (00:00) 12.6 7.22 (00:10) 4.72 (00:10) 0 0 0 0 0
08-02-2021 15.5 (15:10) 8.5 (00:00) 12 8.33 (23:59) 5 (23:59) 0.2 0 0.2 0 0
07-02-2021 13.8 (13:50) 8 (00:00) 10.9 7.78 (01:00) 5.28 (01:00) 2 1.2 0.6 0 0.2
06-02-2021 10.6 (14:20) 5.7 (00:00) 8.2 13.89 (12:50) 8.33 (12:40) 12.8 2.2 6.2 2 2.4
05-02-2021 9.1 (14:10) 5.2 (00:00) 7.2 14.72 (14:20) 7.78 (14:20) 36.6 8 10.8 13 4.8
04-02-2021 11.2 (14:10) 5.6 (00:00) 8.4 10.83 (23:59) 5.56 (23:59) 22.2 0 5.2 6.8 10.2
03-02-2021 19.3 (11:00) 9.8 (00:00) 14.5 6.39 (21:30) 4.17 (21:40) 0 0 0 0 0
02-02-2021 23.1 (15:40) 11.1 (00:00) 17.1 8.33 (07:00) 6.39 (06:50) 0 0 0 0 0
01-02-2021 19.9 (14:30) 13.1 (00:00) 16.5 10.56 (11:50) 6.67 (12:00) 0 0 0 0 0
31-01-2021 20.6 (13:50) 9.8 (00:00) 15.2 9.17 (23:20) 5.83 (23:20) 0.4 0.2 0.2 0 0
30-01-2021 20.8 (17:50) 9.3 (00:00) 15 5 (07:50) 2.78 (01:40) 0 0 0 0 0
29-01-2021 25 (16:40) 15.6 (00:00) 20.3 6.67 (11:20) 5 (08:50) 0 0 0 0 0
28-01-2021 24.7 (13:00) 17.6 (00:00) 21.2 4.72 (21:50) 3.89 (22:00) 0 0 0 0 0

Gráficas

Temp. máximas Temp. mínimas Temp. medias Precipitaciones Rachas de viento máximas Velocidades máximas media en intervalos de 10 minutos

Datos horarios

Fecha y hora oficial Temperatura (ºC) Velocidad del viento (km/h) Dirección del viento Racha (km/h) Dirección de racha Precipitación (mm) Presión (hPa) Tendencia (hPa) Humedad (%)
2021-02-26 23:00:00 8.4 15 Norte 31 Norte 0.2 -- -- 100
2021-02-26 22:00:00 8.1 13 Norte 32 Norte 0 -- -- 99
2021-02-26 21:00:00 8.4 12 Norte 34 Norte 0.4 -- -- 99
2021-02-26 20:00:00 8.5 14 Norte 31 Norte 0 -- -- 99
2021-02-26 19:00:00 8.7 13 Norte 27 Norte 0.2 -- -- 98
2021-02-26 18:00:00 9 17 Norte 31 Norte 0 -- -- 97
2021-02-26 17:00:00 9.5 15 Norte 33 Noroeste 0 -- -- 93
2021-02-26 16:00:00 10.2 16 Norte 31 Norte 0 -- -- 92
2021-02-26 15:00:00 10.5 14 Norte 31 Noroeste 0 -- -- 88
2021-02-26 14:00:00 10.5 15 Norte 35 Noroeste 0.2 -- -- 90
2021-02-26 13:00:00 10.3 15 Norte 36 Norte 0 -- -- 96
2021-02-26 12:00:00 9.9 17 Norte 31 Norte 0.2 -- -- 95
2021-02-26 11:00:00 9.6 12 Norte 35 Norte 0.4 -- -- 95
2021-02-26 10:00:00 8.9 15 Norte 37 Norte 0.4 -- -- 100
2021-02-26 09:00:00 8.7 10 Norte 31 Norte 0.4 -- -- 100
2021-02-26 08:00:00 8.1 15 Norte 33 Noroeste 0.2 -- -- 99
2021-02-26 07:00:00 7.5 12 Norte 27 Norte 0 -- -- 97
2021-02-26 06:00:00 7.6 15 Norte 28 Norte 0 -- -- 99
2021-02-26 05:00:00 7.7 10 Norte 31 Noroeste 0 -- -- 100
2021-02-26 04:00:00 8.1 13 Norte 32 Norte 0.2 -- -- 100
2021-02-26 03:00:00 8 12 Norte 25 Noroeste 0 -- -- 100
2021-02-26 02:00:00 7.2 10 Noroeste 23 Noroeste 0 -- -- 100
2021-02-26 01:00:00 7.1 11 Noroeste 20 Norte 0 -- -- 100
2021-02-26 00:00:00 7.4 8 Norte 25 Norte 0 -- -- 100
2021-02-25 23:00:00 7.7 11 Norte 21 Norte 0 -- -- 100
2021-02-25 22:00:00 8.5 9 Norte 22 Norte 0 -- -- 100
2021-02-25 21:00:00 9 12 Norte 23 Norte 0 -- -- 100
2021-02-25 20:00:00 9.3 11 Norte 24 Norte 0.4 -- -- 100
2021-02-25 19:00:00 9.6 11 Norte 21 Noroeste 0.2 -- -- 100
2021-02-25 18:00:00 10.4 2 Nordeste 19 Norte 0.6 -- -- 100
2021-02-25 17:00:00 10.5 10 Norte 24 Norte 1.8 -- -- 100
2021-02-25 16:00:00 10.8 14 Norte 34 Nordeste 4.8 -- -- 99
2021-02-25 15:00:00 11.3 14 Norte 31 Norte 9.4 -- -- 99
2021-02-25 14:00:00 11.7 10 Norte 21 Norte 12.6 -- -- 98
2021-02-25 13:00:00 12 2 Nordeste 20 Norte 1 -- -- 98
2021-02-25 12:00:00 12.8 10 Este 19 Este 0 -- -- 96
2021-02-25 11:00:00 11.4 9 Sudeste 17 Sudeste 0 -- -- 98
2021-02-25 10:00:00 11.2 6 Sudeste 15 Sudeste 0 -- -- 98
2021-02-25 09:00:00 10.3 9 Sudeste 15 Este 0 -- -- 98
2021-02-25 08:00:00 9.3 8 Sudeste 16 Este 0 -- -- 100
2021-02-25 07:00:00 9.9 12 Nordeste 26 Nordeste 0.4 -- -- 100
2021-02-25 06:00:00 10.5 12 Nordeste 27 Nordeste 0.2 -- -- 100
2021-02-25 05:00:00 10.6 8 Nordeste 23 Nordeste 0 -- -- 99
2021-02-25 04:00:00 10.5 8 Nordeste 19 Nordeste 0 -- -- 99
2021-02-25 03:00:00 10.4 10 Nordeste 22 Nordeste 0 -- -- 99
2021-02-25 02:00:00 10.6 10 Nordeste 17 Nordeste 0 -- -- 99
2021-02-25 01:00:00 10.9 9 Norte 25 Nordeste 0 -- -- 99
2021-02-25 00:00:00 11 6 Nordeste 15 Norte 0 -- -- 98
2021-02-24 23:00:00 11 6 Norte 15 Norte 0 -- -- 98
2021-02-24 22:00:00 10.6 3 Norte 14 Norte 0 -- -- 97
2021-02-24 21:00:00 10.7 7 Nordeste 15 Norte 0 -- -- 97
2021-02-24 20:00:00 11.2 7 Norte 15 Norte 0 -- -- 97
2021-02-24 19:00:00 11.4 2 Norte 9 Nordeste 0 -- -- 95
2021-02-24 18:00:00 12.2 0 Calma 13 Norte 0 -- -- 93
2021-02-24 17:00:00 12.6 5 Norte 14 Norte 0 -- -- 92
2021-02-24 16:00:00 14.2 6 Norte 18 Norte 0 -- -- 80
2021-02-24 15:00:00 14.3 8 Norte 20 Norte 0 -- -- 82
2021-02-24 14:00:00 14.9 10 Norte 21 Norte 0 -- -- 85
2021-02-24 13:00:00 14.3 7 Norte 16 Norte 0 -- -- 83
2021-02-24 12:00:00 14.1 8 Noroeste 16 Noroeste 0 -- -- 85
2021-02-24 11:00:00 13.4 5 Norte 16 Sudeste 0 -- -- 89
2021-02-24 10:00:00 13.2 8 Este 14 Este 0 -- -- 86
2021-02-24 09:00:00 10.8 8 Sudeste 18 Sudeste 0 -- -- 94
2021-02-24 08:00:00 9.7 9 Sudeste 14 Sudeste 0 -- -- 98
2021-02-24 07:00:00 10 4 Sudeste 10 Sudeste 0 -- -- 95
2021-02-24 06:00:00 10 3 Noroeste 8 Nordeste 0 -- -- 93
2021-02-24 05:00:00 9.9 2 Nordeste 10 Sudoeste 0 -- -- 98
2021-02-24 04:00:00 9.5 3 Sudoeste 11 Noroeste 0 -- -- 97
2021-02-24 03:00:00 9.5 5 Noroeste 13 Oeste 0 -- -- 98
2021-02-24 02:00:00 9.6 6 Oeste 13 Norte 0 -- -- 98
2021-02-24 01:00:00 9.6 0 Calma 10 Noroeste 0 -- -- 98
2021-02-24 00:00:00 10 4 Noroeste 11 Norte 0 -- -- 98
2021-02-23 23:00:00 10 2 Noroeste 11 Noroeste 0 -- -- 98
2021-02-23 22:00:00 9.6 4 Nordeste 9 Nordeste 0 -- -- 100
2021-02-23 21:00:00 9.2 3 Este 6 Norte 0 -- -- 99
2021-02-23 20:00:00 10.5 0 Calma 10 Este 0 -- -- 99
2021-02-23 19:00:00 10.7 5 Este 13 Este 0.2 -- -- 99
2021-02-23 18:00:00 11.7 2 Nordeste 9 Norte 0.4 -- -- 98
2021-02-23 17:00:00 12.4 2 Norte 10 Nordeste 0 -- -- 98
2021-02-23 16:00:00 12.2 5 Este 11 Sudeste 0 -- -- 97
2021-02-23 15:00:00 12.4 5 Este 12 Este 0 -- -- 95
2021-02-23 14:00:00 13.2 4 Este 20 Este 0 -- -- 93
2021-02-23 13:00:00 16.1 8 Sudeste 20 Este 0 -- -- 76
2021-02-23 12:00:00 14.4 12 Este 22 Este 0 -- -- 78
2021-02-23 11:00:00 12.8 14 Este 26 Este 0 -- -- 88
2021-02-23 10:00:00 12.8 15 Sudeste 27 Este 0 -- -- 91
2021-02-23 09:00:00 10.7 15 Sudeste 22 Sudeste 0 -- -- 99
2021-02-23 08:00:00 9.7 12 Sudeste 15 Sudeste 0 -- -- 99
2021-02-23 07:00:00 9.7 9 Sudeste 17 Sudeste 0 -- -- 99
2021-02-23 06:00:00 9.2 10 Sudeste 14 Este 0 -- -- 99
2021-02-23 05:00:00 9.8 5 Sudeste 9 Sudeste 0 -- -- 98
2021-02-23 04:00:00 9.6 5 Este 10 Este 0 -- -- 99
2021-02-23 03:00:00 10.2 2 Norte 5 Norte 0 -- -- 99
2021-02-23 02:00:00 10.3 0 Calma 8 Norte 0 -- -- 99
2021-02-23 01:00:00 10.6 3 Nordeste 10 Nordeste 0 -- -- 98
2021-02-23 00:00:00 10.9 3 Este 9 Sudeste 0 -- -- 98
2021-02-22 23:00:00 10.4 2 Sur 3 Sudeste 0 -- -- 96
2021-02-22 22:00:00 10.8 2 Norte 5 Norte 0 -- -- 95
2021-02-22 21:00:00 11.4 3 Noroeste 8 Norte 0 -- -- 91
2021-02-22 20:00:00 11 3 Noroeste 6 Noroeste 0 -- -- 92
2021-02-22 19:00:00 11.3 5 Noroeste 10 Noroeste 0 -- -- 87
2021-02-22 18:00:00 14.9 4 Noroeste 9 Noroeste 0 -- -- 76
2021-02-22 17:00:00 16.7 5 Norte 12 Noroeste 0 -- -- 67
2021-02-22 16:00:00 16.6 6 Noroeste 12 Norte 0 -- -- 68
2021-02-22 15:00:00 15.3 3 Norte 15 Norte 0 -- -- 74
2021-02-22 14:00:00 15.9 6 Norte 15 Norte 0 -- -- 69
2021-02-22 13:00:00 16.1 5 Norte 12 Norte 0 -- -- 68
2021-02-22 12:00:00 14.9 3 Norte 10 Noroeste 0 -- -- 68
2021-02-22 11:00:00 15.7 4 Norte 12 Norte 0 -- -- 61
2021-02-22 10:00:00 14.2 5 Noroeste 15 Oeste 0 -- -- 63
2021-02-22 09:00:00 11.5 8 Noroeste 21 Oeste 0 -- -- 64
2021-02-22 08:00:00 10.2 13 Oeste 23 Sudoeste 0 -- -- 66
2021-02-22 07:00:00 8.2 14 Oeste 18 Oeste 0 -- -- 97
2021-02-22 06:00:00 8.5 6 Noroeste 12 Noroeste 0 -- -- 99
2021-02-22 05:00:00 8.5 6 Noroeste 13 Oeste 0 -- -- 99
2021-02-22 04:00:00 8.5 8 Noroeste 12 Noroeste 0 -- -- 99
2021-02-22 03:00:00 8.7 5 Noroeste 8 Noroeste 0 -- -- 98
2021-02-22 02:00:00 9.4 4 Oeste 8 Noroeste 0 -- -- 98
2021-02-22 01:00:00 9.2 4 Oeste 9 Noroeste 0 -- -- 97
2021-02-22 00:00:00 9.6 3 Noroeste 4 Oeste 0 -- -- 96
2021-02-21 23:00:00 9.4 2 Oeste 9 Noroeste 0 -- -- 96
2021-02-21 22:00:00 9.4 5 Oeste 9 Oeste 0 -- -- 94
2021-02-21 21:00:00 9.8 4 Oeste 7 Noroeste 0 -- -- 94
2021-02-21 20:00:00 9.8 5 Noroeste 10 Noroeste 0 -- -- 93
2021-02-21 19:00:00 10.3 2 Noroeste 10 Noroeste 0 -- -- 90
2021-02-21 18:00:00 11.3 7 Noroeste 18 Noroeste 0 -- -- 86
2021-02-21 17:00:00 11.8 9 Noroeste 20 Noroeste 0 -- -- 79
2021-02-21 16:00:00 12.7 10 Norte 19 Norte 0 -- -- 79
2021-02-21 15:00:00 14.5 12 Noroeste 23 Norte 0.2 -- -- 72
2021-02-21 14:00:00 14.2 13 Noroeste 33 Norte 0 -- -- 73
2021-02-21 13:00:00 14.2 15 Noroeste 24 Noroeste 0 -- -- 76
2021-02-21 12:00:00 13.2 15 Noroeste 27 Oeste 0 -- -- 74
2021-02-21 11:00:00 11.4 15 Noroeste 24 Noroeste 0 -- -- 94
2021-02-21 10:00:00 10 14 Noroeste 31 Oeste 0 -- -- 99
2021-02-21 09:00:00 9.6 11 Oeste 26 Oeste 0 -- -- 100
2021-02-21 08:00:00 8.9 15 Noroeste 32 Oeste 0 -- -- 100
2021-02-21 07:00:00 8.9 18 Oeste 28 Oeste 0 -- -- 100
2021-02-21 06:00:00 9.3 19 Noroeste 41 Oeste 0 -- -- 100
2021-02-21 05:00:00 10 19 Noroeste 38 Noroeste 1.8 -- -- 100
2021-02-21 04:00:00 10 19 Noroeste 44 Noroeste 3 -- -- 100
2021-02-21 03:00:00 10.5 23 Noroeste 36 Noroeste 2.6 -- -- 99
2021-02-21 02:00:00 10.7 22 Noroeste 39 Noroeste 2.4 -- -- 99
2021-02-21 01:00:00 11.1 19 Noroeste 36 Noroeste 2.4 -- -- 98
2021-02-21 00:00:00 12 18 Noroeste 43 Oeste 0 -- -- 97
2021-02-20 23:00:00 13.2 20 Oeste 58 Oeste 0.8 -- -- 94
2021-02-20 22:00:00 14.1 28 Oeste 64 Oeste 0 -- -- 86
2021-02-20 21:00:00 14.9 23 Sudoeste 58 Oeste 0 -- -- 77
2021-02-20 20:00:00 15.1 25 Oeste 71 Oeste 0 -- -- 76
2021-02-20 19:00:00 15.3 23 Sudoeste 71 Oeste 0 -- -- 74
2021-02-20 18:00:00 15.4 29 Sudoeste 59 Sudoeste 0 -- -- 67
2021-02-20 17:00:00 16.5 26 Sudoeste 64 Oeste 0 -- -- 58
2021-02-20 16:00:00 17 19 Sudoeste 49 Sudoeste 0 -- -- 46
2021-02-20 15:00:00 20.6 18 Oeste 62 Oeste 0 -- -- 24
2021-02-20 14:00:00 19 9 Norte 22 Este 0 -- -- 52
2021-02-20 13:00:00 19.5 14 Este 24 Este 0 -- -- 27
2021-02-20 12:00:00 16.6 8 Este 23 Este 0 -- -- 35
2021-02-20 11:00:00 18.8 6 Norte 24 Sudeste 0 -- -- 34
2021-02-20 10:00:00 16.8 9 Noroeste 19 Oeste 0 -- -- 18
2021-02-20 09:00:00 13.9 9 Sudeste 17 Sudeste 0 -- -- 35
2021-02-20 08:00:00 13.9 5 Nordeste 29 Sur 0 -- -- 23
2021-02-20 07:00:00 12 8 Sudeste 23 Oeste 0 -- -- 32
2021-02-20 06:00:00 12.6 4 Norte 23 Sudeste 0 -- -- 29
2021-02-20 05:00:00 11.8 9 Sur 23 Sudoeste 0 -- -- 35
2021-02-20 04:00:00 11.4 3 Sudoeste 19 Este 0 -- -- 45
2021-02-20 03:00:00 10.6 6 Norte 18 Noroeste 0 -- -- 53
2021-02-20 02:00:00 11.8 6 Noroeste 35 Sudeste 0 -- -- 47
2021-02-20 01:00:00 10.9 19 Sudeste 24 Sudeste 0 -- -- 64
2021-02-20 00:00:00 12 3 Este 6 Este 0 -- -- 59
2021-02-19 23:00:00 12.5 3 Este 9 Sudeste 0 -- -- 58
2021-02-19 22:00:00 13.1 6 Sudeste 20 Sudeste 0 -- -- 39
2021-02-19 21:00:00 12 3 Sur 5 Sudeste 0 -- -- 66
2021-02-19 20:00:00 11.7 2 Sudeste 8 Noroeste 0 -- -- 70
2021-02-19 19:00:00 13.8 4 Oeste 11 Sudeste 0 -- -- 75
2021-02-19 18:00:00 15.3 8 Sudeste 10 Sudeste 0 -- -- 72
2021-02-19 17:00:00 17.4 2 Nordeste 15 Noroeste 0 -- -- 68
2021-02-19 16:00:00 19.3 4 Oeste 15 Norte 0 -- -- 58
2021-02-19 15:00:00 19 6 Norte 18 Sur 0 -- -- 50
2021-02-19 14:00:00 19.3 5 Norte 17 Nordeste 0 -- -- 53
2021-02-19 13:00:00 19.7 6 Sudeste 16 Este 0 -- -- 38
2021-02-19 12:00:00 19 4 Norte 8 Nordeste 0 -- -- 39
2021-02-19 11:00:00 17.5 4 Norte 9 Noroeste 0 -- -- 28
2021-02-19 10:00:00 17.1 6 Sudeste 17 Sudeste 0 -- -- 24
2021-02-19 09:00:00 14 10 Sudeste 19 Sudeste 0 -- -- 30
2021-02-19 08:00:00 11.4 14 Sudeste 24 Sudeste 0 -- -- 28
2021-02-19 07:00:00 11.3 18 Sudeste 22 Sudeste 0 -- -- 30
2021-02-19 06:00:00 11.5 15 Sudeste 19 Sudeste 0 -- -- 27
2021-02-19 05:00:00 12.1 17 Sudeste 23 Sudeste 0 -- -- 26
2021-02-19 04:00:00 11.6 20 Sudeste 22 Sudeste 0 -- -- 22
2021-02-19 03:00:00 12.1 13 Sudeste 16 Sudeste 0 -- -- 21
2021-02-19 02:00:00 12.8 9 Sur 17 Sudeste 0 -- -- 20
2021-02-19 01:00:00 12.3 12 Sudeste 16 Sur 0 -- -- 21
2021-02-19 00:00:00 12.7 12 Sudeste 18 Sudeste 0 -- -- 21
2021-02-18 23:00:00 12.4 13 Este 21 Sudeste 0 -- -- 21
2021-02-18 22:00:00 11.7 16 Sudeste 20 Sudeste 0 -- -- 30
2021-02-18 21:00:00 11.1 13 Sudeste 20 Sudeste 0 -- -- 48
2021-02-18 20:00:00 10.3 15 Sudeste 17 Sudeste 0 -- -- 86
2021-02-18 19:00:00 10.7 12 Sudeste 21 Este 0 -- -- 92
2021-02-18 18:00:00 13.3 8 Este 14 Sudeste 0 -- -- 79
2021-02-18 17:00:00 15 13 Este 18 Este 0 -- -- 69
2021-02-18 16:00:00 17.9 6 Sudeste 20 Este 0 -- -- 58
2021-02-18 15:00:00 16.5 13 Sudeste 22 Este 0 -- -- 61
2021-02-18 14:00:00 16.2 10 Este 23 Este 0 -- -- 62
2021-02-18 13:00:00 15.7 14 Este 28 Este 0 -- -- 66
2021-02-18 12:00:00 14.8 16 Este 25 Este 0 -- -- 66
2021-02-18 11:00:00 14.5 13 Este 20 Este 0 -- -- 66
2021-02-18 10:00:00 12.7 15 Sudeste 23 Este 0 -- -- 59
2021-02-18 09:00:00 11.2 13 Sudeste 18 Sudeste 0 -- -- 47
2021-02-18 08:00:00 8.5 13 Sudeste 19 Sudeste 0 -- -- 76
2021-02-18 07:00:00 8.4 17 Sudeste 21 Sudeste 0 -- -- 91
2021-02-18 06:00:00 8.1 10 Sudeste 14 Este 0 -- -- 91
2021-02-18 05:00:00 8.7 10 Este 21 Sudeste 0 -- -- 78
2021-02-18 04:00:00 10.8 15 Sudeste 27 Sudeste 0 -- -- 32
2021-02-18 03:00:00 10.4 13 Sudeste 26 Sudeste 0 -- -- 33
2021-02-18 02:00:00 8.4 12 Sudeste 22 Sudeste 0 -- -- 60
2021-02-18 01:00:00 9.3 17 Sudeste 27 Sudeste 0 -- -- 38
2021-02-18 00:00:00 10.2 19 Sudeste 26 Sudeste 0 -- -- 25
2021-02-17 23:00:00 10.1 16 Sudeste 21 Sudeste 0 -- -- 26
2021-02-17 22:00:00 9.7 9 Sudeste 14 Sudeste 0 -- -- 36
2021-02-17 21:00:00 9.7 10 Sudeste 13 Sudeste 0 -- -- 49
2021-02-17 20:00:00 9.7 8 Este 9 Este 0 -- -- 67
2021-02-17 19:00:00 11 2 Sur 8 Noroeste 0 -- -- 68
2021-02-17 18:00:00 13.7 5 Noroeste 13 Noroeste 0 -- -- 59
2021-02-17 17:00:00 15.6 9 Noroeste 15 Noroeste 0 -- -- 50
2021-02-17 16:00:00 16.9 7 Norte 17 Norte 0 -- -- 43
2021-02-17 15:00:00 17.2 8 Noroeste 21 Noroeste 0 -- -- 39
2021-02-17 14:00:00 16.9 9 Este 26 Este 0 -- -- 33
2021-02-17 13:00:00 15 17 Este 28 Sudeste 0 -- -- 36
2021-02-17 12:00:00 14.8 21 Sudeste 44 Sudeste 0 -- -- 38
2021-02-17 11:00:00 13.2 32 Sudeste 52 Sudeste 0 -- -- 39
2021-02-17 10:00:00 11.9 37 Sudeste 51 Sudeste 0 -- -- 51
2021-02-17 09:00:00 10.6 31 Sudeste 43 Sudeste 0 -- -- 67
2021-02-17 08:00:00 9.6 22 Sudeste 45 Sudeste 0 -- -- 69
2021-02-17 07:00:00 9.7 27 Sudeste 48 Sudeste 0 -- -- 72
2021-02-17 06:00:00 10.5 33 Sudeste 49 Sudeste 0 -- -- 55
2021-02-17 05:00:00 10.5 34 Sudeste 55 Sudeste 0 -- -- 63
2021-02-17 04:00:00 10.6 33 Sudeste 49 Sudeste 0 -- -- 64
2021-02-17 03:00:00 10.3 25 Sudeste 39 Sudeste 0 -- -- 78
2021-02-17 02:00:00 10.7 23 Sudeste 35 Sudeste 0 -- -- 70
2021-02-17 01:00:00 11.4 20 Sudeste 32 Sudeste 0 -- -- 46
2021-02-17 00:00:00 12 21 Sudeste 33 Sudeste 0 -- -- 32
2021-02-16 23:00:00 12 17 Sudeste 31 Sudeste 0 -- -- 29
2021-02-16 22:00:00 11.5 15 Sudeste 27 Sudeste 0 -- -- 36
2021-02-16 21:00:00 11.3 14 Sudeste 28 Sudeste 0 -- -- 39
2021-02-16 20:00:00 11.7 15 Sudeste 37 Sudeste 0 -- -- 36
2021-02-16 19:00:00 12.4 25 Sudeste 51 Sudeste 0 -- -- 35
2021-02-16 18:00:00 12.8 32 Sudeste 46 Sudeste 0 -- -- 36
2021-02-16 17:00:00 13.8 26 Sudeste 39 Sudeste 0 -- -- 42
2021-02-16 16:00:00 15.3 24 Sudeste 42 Sudeste 0 -- -- 40
2021-02-16 15:00:00 15.5 22 Sudeste 42 Sudeste 0 -- -- 41
2021-02-16 14:00:00 15.8 24 Sudeste 49 Sudeste 0 -- -- 41
2021-02-16 13:00:00 15.2 29 Sudeste 53 Sudeste 0 -- -- 38
2021-02-16 12:00:00 15 32 Sudeste 54 Sudeste 0 -- -- 42
2021-02-16 11:00:00 14.3 37 Sudeste 56 Sudeste 0 -- -- 44
2021-02-16 10:00:00 13.5 34 Sudeste 60 Sudeste 0 -- -- 42
2021-02-16 09:00:00 12.4 36 Sudeste 59 Este 0 -- -- 44
2021-02-16 08:00:00 11.9 35 Sudeste 54 Sudeste 0 -- -- 45
2021-02-16 07:00:00 12.5 32 Sudeste 56 Sudeste 0 -- -- 39
2021-02-16 06:00:00 13.1 42 Sudeste 70 Sudeste 0 -- -- 37
2021-02-16 05:00:00 13.5 42 Sudeste 68 Sudeste 0 -- -- 33
2021-02-16 04:00:00 14.1 46 Sudeste 69 Sudeste 0 -- -- 29
2021-02-16 03:00:00 14.4 46 Sudeste 72 Sudeste 0 -- -- 29
2021-02-16 02:00:00 14.9 44 Sudeste 65 Sudeste 0 -- -- 32
2021-02-16 01:00:00 15.4 43 Sudeste 64 Sudeste 0 -- -- 32
2021-02-16 00:00:00 15.7 38 Sudeste 61 Sudeste 0 -- -- 30
2021-02-15 23:00:00 16.1 32 Sudeste 53 Sudeste 0 -- -- 28
2021-02-15 22:00:00 16.9 42 Sudeste 64 Sudeste 0 -- -- 24
2021-02-15 21:00:00 17.3 39 Sudeste 61 Sudeste 0 -- -- 22
2021-02-15 20:00:00 16.6 35 Sudeste 53 Sudeste 0 -- -- 22
2021-02-15 19:00:00 16.7 32 Sudeste 51 Este 0 -- -- 21
2021-02-15 18:00:00 17.2 24 Sudeste 37 Sudeste 0 -- -- 23
2021-02-15 17:00:00 18.9 17 Sudeste 27 Sudeste 0 -- -- 24
2021-02-15 16:00:00 20 19 Sudeste 34 Este 0 -- -- 24
2021-02-15 15:00:00 20.2 22 Sudeste 42 Sudeste 0 -- -- 27
2021-02-15 14:00:00 19.7 28 Sudeste 45 Sudeste 0 -- -- 28
2021-02-15 13:00:00 19.7 28 Sudeste 46 Sudeste 0 -- -- 28
2021-02-15 12:00:00 19.2 30 Sudeste 50 Sudeste 0 -- -- 27
2021-02-15 11:00:00 18.1 32 Sudeste 57 Sudeste 0 -- -- 29
2021-02-15 10:00:00 17.4 38 Sudeste 57 Sudeste 0 -- -- 28
2021-02-15 09:00:00 17 35 Sudeste 57 Sudeste 0 -- -- 29
2021-02-15 08:00:00 16.5 30 Sudeste 55 Sudeste 0 -- -- 26
2021-02-15 07:00:00 16.3 23 Sudeste 41 Sudeste 0 -- -- 26
2021-02-15 06:00:00 16.7 27 Sudeste 48 Sudeste 0 -- -- 24
2021-02-15 05:00:00 16.3 24 Sudeste 45 Sudeste 0 -- -- 27
2021-02-15 04:00:00 16.9 28 Sudeste 40 Sudeste 0 -- -- 28
2021-02-15 03:00:00 16.2 16 Sudeste 27 Sudeste 0 -- -- 25
2021-02-15 02:00:00 16.6 17 Sudeste 26 Sudeste 0 -- -- 23
2021-02-15 01:00:00 16.5 11 Sudeste 22 Sudeste 0 -- -- 24
2021-02-15 00:00:00 16.6 12 Sudeste 23 Sudeste 0 -- -- 22
2021-02-14 23:00:00 16.2 10 Sudeste 23 Sudeste 0 -- -- 23
2021-02-14 22:00:00 16.5 14 Sudeste 24 Sur 0 -- -- 25
2021-02-14 21:00:00 15.9 10 Sudeste 21 Sudeste 0 -- -- 28
2021-02-14 20:00:00 15.6 13 Sudeste 18 Sudeste 0 -- -- 36
2021-02-14 19:00:00 15.5 11 Sudeste 20 Sudeste 0 -- -- 48
2021-02-14 18:00:00 17.6 15 Sudeste 20 Sudeste 0 -- -- 49
2021-02-14 17:00:00 18 13 Sudeste 21 Sudeste 0 -- -- 72
2021-02-14 16:00:00 19.4 12 Sudeste 18 Sudeste 0 -- -- 64
2021-02-14 15:00:00 19.3 13 Este 18 Sudeste 0 -- -- 65
2021-02-14 14:00:00 19.6 10 Sudeste 17 Sudeste 0 -- -- 66
2021-02-14 13:00:00 17.5 12 Sudeste 17 Este 0 -- -- 74
2021-02-14 12:00:00 17.2 10 Sudeste 17 Sudeste 0 -- -- 74
2021-02-14 11:00:00 14.3 14 Sudeste 20 Este 0 -- -- 82
2021-02-14 10:00:00 15.3 10 Sudeste 15 Este 0 -- -- 75
2021-02-14 09:00:00 13.3 8 Sudeste 13 Este 0 -- -- 71
2021-02-14 08:00:00 9.9 7 Sudeste 12 Sudeste 0 -- -- 68
2021-02-14 07:00:00 11.7 8 Sudeste 17 Sudeste 0 -- -- 40
2021-02-14 06:00:00 13.6 14 Sudeste 19 Sudeste 0 -- -- 30
2021-02-14 05:00:00 13.3 14 Sudeste 19 Sudeste 0 -- -- 32
2021-02-14 04:00:00 13.5 15 Sudeste 23 Sudeste 0 -- -- 34
2021-02-14 03:00:00 12.8 15 Sudeste 21 Este 0 -- -- 37
2021-02-14 02:00:00 12.6 15 Sudeste 22 Sudeste 0 -- -- 42
2021-02-14 01:00:00 11.4 15 Sudeste 21 Este 0 -- -- 45
2021-02-14 00:00:00 11.9 16 Sudeste 23 Este 0 -- -- 46
2021-02-13 23:00:00 12 12 Sudeste 22 Sudeste 0 -- -- 45
2021-02-13 22:00:00 9.4 5 Sudeste 11 Este 0 -- -- 98
2021-02-13 21:00:00 10.5 3 Norte 13 Norte 0 -- -- 98
2021-02-13 20:00:00 10.4 0 Calma 12 Nordeste 0 -- -- 98
2021-02-13 19:00:00 10.4 3 Este 9 Este 0 -- -- 96
2021-02-13 18:00:00 11.9 5 Sudeste 14 Sudeste 0 -- -- 93
2021-02-13 17:00:00 14.4 5 Sudeste 13 Sudeste 0 -- -- 85
2021-02-13 16:00:00 16.6 5 Sudeste 14 Este 0 -- -- 74
2021-02-13 15:00:00 16.6 8 Sudeste 14 Sudeste 0 -- -- 76
2021-02-13 14:00:00 16.6 7 Sudeste 13 Este 0 -- -- 78
2021-02-13 13:00:00 14.6 5 Este 15 Este 0 -- -- 80
2021-02-13 12:00:00 13.9 8 Sudeste 18 Sudeste 0 -- -- 81
2021-02-13 07:00:00 -- -- -- -- -- -- -- -- --
2021-02-13 06:00:00 10.4 12 Sudeste 20 Sudeste 0 -- -- 100
2021-02-13 05:00:00 10.3 8 Sudeste 21 Sudeste 0 -- -- 100
2021-02-13 04:00:00 10.1 9 Este 17 Este 0 -- -- 99
2021-02-13 03:00:00 10.4 9 Este 18 Este 0 -- -- 99
2021-02-13 02:00:00 10.2 5 Este 15 Nordeste 0 -- -- 99
2021-02-13 01:00:00 10.2 6 Norte 20 Norte 0 -- -- 99
2021-02-13 00:00:00 10.7 7 Norte 19 Norte 0.2 -- -- 99
2021-02-12 23:00:00 11.1 5 Nordeste 14 Nordeste 0.2 -- -- 99
2021-02-12 22:00:00 10.7 0 Calma 13 Este 0 -- -- 98
2021-02-12 21:00:00 10.6 3 Nordeste 10 Norte 0 -- -- 98
2021-02-12 20:00:00 10.4 3 Nordeste 14 Norte 0 -- -- 98
2021-02-12 19:00:00 10.6 4 Nordeste 12 Norte 0 -- -- 98
2021-02-12 18:00:00 11.5 5 Norte 16 Norte 0 -- -- 97
2021-02-12 17:00:00 12.2 5 Norte 13 Norte 0.2 -- -- 96
2021-02-12 16:00:00 13.1 3 Norte 11 Nordeste 0 -- -- 91
2021-02-12 15:00:00 13 7 Nordeste 19 Este 0 -- -- 92
2021-02-12 14:00:00 13.1 7 Nordeste 21 Nordeste 0.6 -- -- 97
2021-02-12 13:00:00 13 6 Este 19 Este 0 -- -- 95
2021-02-12 12:00:00 13.2 6 Sudeste 13 Este 0 -- -- 94
2021-02-12 11:00:00 12.4 9 Este 16 Este 0 -- -- 96
2021-02-12 10:00:00 11.4 5 Este 12 Sudeste 0.6 -- -- 100
2021-02-12 09:00:00 10.5 6 Este 11 Sur 0.2 -- -- 100
2021-02-12 08:00:00 9.9 7 Sur 11 Sudeste 0 -- -- 100
2021-02-12 07:00:00 10.2 6 Este 14 Este 0.2 -- -- 100
2021-02-12 06:00:00 10.4 8 Nordeste 19 Este 0.2 -- -- 100
2021-02-12 05:00:00 10.3 4 Este 19 Este 0.2 -- -- 100
2021-02-12 04:00:00 10.5 6 Este 15 Este 0.2 -- -- 99
2021-02-12 03:00:00 10.3 9 Sudeste 15 Sudeste 0.2 -- -- 99
2021-02-12 02:00:00 10.3 7 Sudeste 17 Sudeste 0.2 -- -- 99
2021-02-12 01:00:00 10.5 8 Sudeste 22 Sudeste 0.4 -- -- 99
2021-02-12 00:00:00 10.8 4 Este 13 Sur 0 -- -- 98
2021-02-11 23:00:00 10.7 5 Este 13 Este 0.8 -- -- 98
2021-02-11 22:00:00 10.8 4 Sur 12 Norte 0 -- -- 97
2021-02-11 21:00:00 10.9 5 Nordeste 10 Norte 0 -- -- 92
2021-02-11 20:00:00 10.9 3 Norte 12 Norte 0 -- -- 95
2021-02-11 19:00:00 11.4 7 Noroeste 12 Norte 0 -- -- 91
2021-02-11 18:00:00 11.7 8 Noroeste 16 Noroeste 0 -- -- 87
2021-02-11 17:00:00 13.9 10 Noroeste 22 Noroeste 0 -- -- 77
2021-02-11 16:00:00 15 12 Noroeste 25 Noroeste 0 -- -- 69
2021-02-11 15:00:00 15.3 17 Noroeste 26 Noroeste 0 -- -- 71
2021-02-11 14:00:00 15.3 16 Noroeste 28 Norte 0 -- -- 71
2021-02-11 13:00:00 15.7 13 Noroeste 23 Noroeste 0 -- -- 71
2021-02-11 12:00:00 14.9 10 Norte 17 Noroeste 0 -- -- 76
2021-02-11 11:00:00 14.2 5 Norte 10 Norte 0 -- -- 77
2021-02-11 10:00:00 11.3 5 Noroeste 8 Noroeste 0 -- -- 88
2021-02-11 09:00:00 10.7 3 Oeste 9 Sudoeste 0 -- -- 88
2021-02-11 08:00:00 8.9 7 Oeste 15 Oeste 0 -- -- 95
2021-02-11 07:00:00 8.9 8 Oeste 12 Oeste 0 -- -- 94
2021-02-11 06:00:00 8.9 7 Oeste 11 Oeste 0 -- -- 95
2021-02-11 05:00:00 8.7 5 Oeste 9 Oeste 0 -- -- 92
2021-02-11 04:00:00 8.6 5 Oeste 12 Oeste 0 -- -- 93
2021-02-11 03:00:00 9.2 8 Noroeste 14 Oeste 0 -- -- 89
2021-02-11 02:00:00 9.3 10 Oeste 13 Oeste 0 -- -- 88
2021-02-11 01:00:00 9.6 7 Oeste 10 Oeste 0 -- -- 85
2021-02-11 00:00:00 9.7 5 Oeste 8 Noroeste 0 -- -- 96
2021-02-10 23:00:00 9.7 6 Noroeste 10 Noroeste 0 -- -- 97
2021-02-10 22:00:00 10 7 Oeste 8 Oeste 0 -- -- 99
2021-02-10 21:00:00 10.4 4 Oeste 9 Oeste 0 -- -- 98
2021-02-10 20:00:00 10.7 3 Noroeste 8 Oeste 0 -- -- 98
2021-02-10 19:00:00 11.4 4 Noroeste 5 Noroeste 0 -- -- 98
2021-02-10 18:00:00 11.9 3 Norte 6 Norte 0 -- -- 96
2021-02-10 17:00:00 12 3 Noroeste 8 Norte 0 -- -- 95
2021-02-10 16:00:00 12.8 4 Noroeste 6 Noroeste 0 -- -- 93
2021-02-10 15:00:00 13.7 3 Este 6 Sudeste 0 -- -- 89
2021-02-10 14:00:00 12.8 3 Norte 8 Norte 0 -- -- 91
2021-02-10 13:00:00 13.8 5 Norte 10 Norte 0 -- -- 88
2021-02-10 12:00:00 14.8 6 Norte 13 Sudeste 0 -- -- 83
2021-02-10 11:00:00 13.4 3 Norte 6 Norte 0 -- -- 91
2021-02-10 10:00:00 10.8 3 Norte 5 Norte 0 -- -- 98
2021-02-10 09:00:00 10.5 2 Norte 3 Norte 0 -- -- 99
2021-02-10 08:00:00 9.8 0 Calma 4 Norte 0 -- -- 100
2021-02-10 07:00:00 9.4 2 Norte 3 Norte 0 -- -- 98
2021-02-10 06:00:00 9.5 3 Sur 4 Sur 0 -- -- 97
2021-02-10 05:00:00 9.8 2 Nordeste 6 Noroeste 0 -- -- 97
2021-02-10 04:00:00 9.5 5 Noroeste 8 Norte 0 -- -- 94
2021-02-10 03:00:00 10.1 0 Calma 8 Sur 0 -- -- 92
2021-02-10 02:00:00 9.9 4 Sudoeste 6 Noroeste 0 -- -- 96
2021-02-10 01:00:00 9.9 4 Oeste 9 Sudoeste 0 -- -- 96
2021-02-10 00:00:00 10 4 Sudoeste 11 Noroeste 0 -- -- 95
2021-02-09 23:00:00 9.8 6 Oeste 10 Sudoeste 0 -- -- 96
2021-02-09 22:00:00 9.2 7 Oeste 10 Oeste 0 -- -- 96
2021-02-09 21:00:00 9.7 7 Noroeste 12 Noroeste 0 -- -- 93
2021-02-09 20:00:00 10.7 8 Noroeste 14 Oeste 0 -- -- 91
2021-02-09 19:00:00 10.6 8 Oeste 13 Oeste 0 -- -- 95
2021-02-09 18:00:00 12.4 6 Noroeste 11 Norte 0 -- -- 89
2021-02-09 17:00:00 14.4 6 Noroeste 10 Noroeste 0 -- -- 80
2021-02-09 16:00:00 14.4 4 Norte 11 Noroeste 0 -- -- 80
2021-02-09 15:00:00 15.3 5 Noroeste 13 Oeste 0 -- -- 76
2021-02-09 14:00:00 15.1 5 Noroeste 17 Norte 0 -- -- 76
2021-02-09 13:00:00 15.8 8 Noroeste 14 Oeste 0 -- -- 72
2021-02-09 12:00:00 14.6 6 Noroeste 18 Noroeste 0 -- -- 74
2021-02-09 11:00:00 13.7 6 Noroeste 14 Noroeste 0 -- -- 77
2021-02-09 10:00:00 11.9 8 Noroeste 18 Oeste 0 -- -- 85
2021-02-09 09:00:00 10.3 9 Noroeste 21 Oeste 0 -- -- 94
2021-02-09 08:00:00 9.3 14 Oeste 23 Noroeste 0 -- -- 98
2021-02-09 07:00:00 9.1 16 Oeste 24 Oeste 0 -- -- 99
2021-02-09 06:00:00 9.1 16 Noroeste 24 Noroeste 0 -- -- 99
2021-02-09 05:00:00 8.9 12 Noroeste 16 Oeste 0 -- -- 99
2021-02-09 04:00:00 8.5 9 Noroeste 15 Noroeste 0 -- -- 98
2021-02-09 03:00:00 8.6 11 Oeste 17 Oeste 0 -- -- 98
2021-02-09 02:00:00 9.3 11 Oeste 23 Noroeste 0 -- -- 95
2021-02-09 01:00:00 9.8 14 Noroeste 26 Oeste 0 -- -- 93
2021-02-09 00:00:00 10.1 18 Oeste 30 Oeste 0 -- -- 94
2021-02-08 23:00:00 10.1 13 Noroeste 21 Oeste 0 -- -- 96
2021-02-08 22:00:00 10.1 11 Noroeste 22 Oeste 0 -- -- 95
2021-02-08 21:00:00 10 14 Oeste 24 Oeste 0 -- -- 97
2021-02-08 20:00:00 10.2 10 Noroeste 19 Noroeste 0 -- -- 98
2021-02-08 19:00:00 11 9 Noroeste 13 Noroeste 0 -- -- 97
2021-02-08 18:00:00 12.1 6 Noroeste 13 Noroeste 0 -- -- 95
2021-02-08 17:00:00 13 9 Noroeste 14 Noroeste 0 -- -- 94
2021-02-08 16:00:00 14.6 5 Noroeste 15 Noroeste 0 -- -- 83
2021-02-08 15:00:00 15.4 6 Oeste 15 Noroeste 0 -- -- 82
2021-02-08 14:00:00 15 10 Noroeste 19 Noroeste 0 -- -- 84
2021-02-08 13:00:00 14.1 11 Noroeste 20 Noroeste 0 -- -- 86
2021-02-08 12:00:00 13.9 8 Noroeste 13 Noroeste 0 -- -- 84
2021-02-08 11:00:00 13 10 Noroeste 18 Oeste 0.2 -- -- 89
2021-02-08 10:00:00 10.3 10 Oeste 19 Oeste 0 -- -- 100
2021-02-08 09:00:00 9.2 12 Oeste 20 Oeste 0 -- -- 100
2021-02-08 08:00:00 8.7 13 Oeste 21 Oeste 0 -- -- 100
2021-02-08 07:00:00 8.7 13 Oeste 21 Oeste 0 -- -- 100
2021-02-08 06:00:00 8.7 12 Noroeste 21 Oeste 0 -- -- 100
2021-02-08 05:00:00 8.8 12 Oeste 21 Oeste 0 -- -- 100
2021-02-08 04:00:00 8.8 13 Oeste 18 Noroeste 0 -- -- 100
2021-02-08 03:00:00 8.6 9 Noroeste 13 Oeste 0 -- -- 100
2021-02-08 02:00:00 8.8 7 Oeste 13 Sudoeste 0 -- -- 100
2021-02-08 01:00:00 8.9 6 Oeste 17 Oeste 0 -- -- 99
2021-02-08 00:00:00 8.8 12 Oeste 18 Oeste 0 -- -- 99
2021-02-07 23:00:00 8.8 10 Noroeste 17 Oeste 0 -- -- 99
2021-02-07 22:00:00 8.4 9 Oeste 14 Oeste 0 -- -- 99
2021-02-07 21:00:00 9.1 8 Oeste 12 Oeste 0 -- -- 99
2021-02-07 20:00:00 9.2 5 Noroeste 11 Noroeste 0.2 -- -- 98
2021-02-07 19:00:00 9.7 3 Noroeste 7 Norte 0 -- -- 96
2021-02-07 18:00:00 10.5 6 Noroeste 15 Norte 0 -- -- 93
2021-02-07 17:00:00 12 9 Norte 16 Noroeste 0 -- -- 85
2021-02-07 16:00:00 12.1 6 Noroeste 16 Norte 0 -- -- 88
2021-02-07 15:00:00 12.2 8 Norte 21 Norte 0 -- -- 87
2021-02-07 14:00:00 13.6 9 Noroeste 20 Noroeste 0 -- -- 84
2021-02-07 13:00:00 12.6 10 Noroeste 17 Noroeste 0 -- -- 91
2021-02-07 12:00:00 11.5 7 Noroeste 13 Noroeste 0 -- -- 99
2021-02-07 11:00:00 10.7 5 Noroeste 12 Noroeste 0 -- -- 100
2021-02-07 10:00:00 9.7 5 Noroeste 14 Norte 0 -- -- 100
2021-02-07 09:00:00 8.6 5 Oeste 10 Oeste 0 -- -- 100
2021-02-07 08:00:00 8.2 8 Oeste 12 Noroeste 0.4 -- -- 100
2021-02-07 07:00:00 8.4 9 Noroeste 24 Oeste 0.2 -- -- 100
2021-02-07 06:00:00 8.4 8 Noroeste 24 Noroeste 0.4 -- -- 100
2021-02-07 05:00:00 8.4 9 Oeste 17 Noroeste 0.2 -- -- 100
2021-02-07 04:00:00 8.4 10 Noroeste 24 Oeste 0.2 -- -- 100
2021-02-07 03:00:00 8.2 16 Oeste 25 Oeste 0 -- -- 100
2021-02-07 02:00:00 8.5 13 Oeste 27 Noroeste 0 -- -- 100
2021-02-07 01:00:00 8.9 19 Noroeste 28 Noroeste 0.4 -- -- 100
2021-02-07 00:00:00 8.9 14 Noroeste 31 Oeste 0.8 -- -- 100
2021-02-06 23:00:00 8.4 18 Oeste 36 Noroeste 0.8 -- -- 100
2021-02-06 22:00:00 8.7 25 Noroeste 45 Noroeste 0.4 -- -- 100
2021-02-06 21:00:00 8.7 19 Noroeste 36 Noroeste 0.2 -- -- 100
2021-02-06 20:00:00 8.3 21 Noroeste 46 Noroeste 0.2 -- -- 100
2021-02-06 19:00:00 8.6 21 Noroeste 44 Noroeste 0 -- -- 100
2021-02-06 18:00:00 8.9 21 Noroeste 40 Noroeste 0.2 -- -- 99
2021-02-06 17:00:00 9.3 19 Noroeste 41 Noroeste 0 -- -- 98
2021-02-06 16:00:00 9.3 23 Noroeste 41 Noroeste 0.8 -- -- 99
2021-02-06 15:00:00 10.2 23 Noroeste 46 Noroeste 0 -- -- 95
2021-02-06 14:00:00 9.6 25 Noroeste 45 Noroeste 0.6 -- -- 98
2021-02-06 13:00:00 9.8 24 Noroeste 50 Noroeste 0.4 -- -- 99
2021-02-06 12:00:00 9.6 24 Noroeste 49 Norte 2 -- -- 100
2021-02-06 11:00:00 9.1 23 Noroeste 46 Noroeste 1.2 -- -- 100
2021-02-06 10:00:00 8.1 19 Noroeste 41 Oeste 0 -- -- 98
2021-02-06 09:00:00 7.7 21 Noroeste 41 Oeste 0 -- -- 100
2021-02-06 08:00:00 6.9 25 Noroeste 49 Noroeste 3 -- -- 100
2021-02-06 07:00:00 6.9 22 Noroeste 40 Oeste 0 -- -- 100
2021-02-06 06:00:00 6.6 18 Noroeste 44 Noroeste 1.4 -- -- 100
2021-02-06 05:00:00 6.3 21 Noroeste 33 Noroeste 0 -- -- 100
2021-02-06 04:00:00 5.7 18 Noroeste 36 Oeste 0 -- -- 100
2021-02-06 03:00:00 6.4 21 Noroeste 37 Oeste 0.4 -- -- 100
2021-02-06 02:00:00 6.1 19 Noroeste 49 Norte 0 -- -- 100
2021-02-06 01:00:00 6.7 25 Noroeste 41 Noroeste 0.4 -- -- 100
2021-02-06 00:00:00 6.6 20 Noroeste 37 Noroeste 0 -- -- 100
2021-02-05 23:00:00 6.7 19 Noroeste 35 Noroeste 0.2 -- -- 100
2021-02-05 22:00:00 7 18 Noroeste 33 Noroeste 0.2 -- -- 100
2021-02-05 21:00:00 6.7 19 Noroeste 31 Noroeste 1.4 -- -- 100
2021-02-05 20:00:00 5.8 20 Oeste 31 Oeste 0 -- -- 100
2021-02-05 19:00:00 5.4 14 Oeste 34 Oeste 3 -- -- 100
2021-02-05 18:00:00 6.4 15 Noroeste 30 Noroeste 0.4 -- -- 100
2021-02-05 17:00:00 6.3 14 Oeste 31 Norte 0.8 -- -- 100
2021-02-05 16:00:00 7 14 Oeste 28 Noroeste 1.2 -- -- 99
2021-02-05 15:00:00 6.2 12 Noroeste 53 Norte 6 -- -- 100
2021-02-05 14:00:00 8.7 18 Noroeste 33 Noroeste 0.6 -- -- 99
2021-02-05 13:00:00 6.7 17 Oeste 43 Oeste 4 -- -- 100
2021-02-05 12:00:00 6 19 Oeste 35 Noroeste 4.2 -- -- 100
2021-02-05 11:00:00 6.6 19 Noroeste 35 Norte 4 -- -- 99
2021-02-05 10:00:00 7.4 16 Noroeste 38 Oeste 0.2 -- -- 98
2021-02-05 09:00:00 6 20 Oeste 33 Oeste 0.6 -- -- 99
2021-02-05 08:00:00 6 18 Oeste 31 Oeste 1 -- -- 100
2021-02-05 07:00:00 5.5 18 Oeste 36 Oeste 0.8 -- -- 100
2021-02-05 06:00:00 6.3 11 Noroeste 24 Noroeste 4.8 -- -- 99
2021-02-05 05:00:00 6 14 Oeste 30 Oeste 0 -- -- 97
2021-02-05 04:00:00 5.7 18 Oeste 31 Oeste 0 -- -- 96
2021-02-05 03:00:00 5.2 20 Oeste 31 Oeste 0 -- -- 96
2021-02-05 02:00:00 5.8 15 Oeste 33 Oeste 2.4 -- -- 99
2021-02-05 01:00:00 5.6 18 Oeste 36 Oeste 0.8 -- -- 98
2021-02-05 00:00:00 5.6 20 Oeste 39 Oeste 2.8 -- -- 99
2021-02-04 23:00:00 6.8 15 Oeste 30 Noroeste 1.2 -- -- 99
2021-02-04 22:00:00 7.5 15 Noroeste 28 Noroeste 0 -- -- 100
2021-02-04 21:00:00 7.3 15 Oeste 25 Noroeste 0.8 -- -- 99
2021-02-04 20:00:00 7.4 16 Oeste 31 Noroeste 0 -- -- 99
2021-02-04 19:00:00 7.3 13 Noroeste 34 Oeste 5.4 -- -- 99
2021-02-04 18:00:00 9 13 Noroeste 28 Oeste 0 -- -- 95
2021-02-04 17:00:00 8.7 15 Oeste 26 Noroeste 0 -- -- 99
2021-02-04 16:00:00 8.4 16 Oeste 29 Oeste 4.4 -- -- 100
2021-02-04 15:00:00 9.1 15 Noroeste 30 Noroeste 0 -- -- 99
2021-02-04 14:00:00 10.7 13 Noroeste 24 Noroeste 0 -- -- 100
2021-02-04 13:00:00 10.6 13 Noroeste 25 Oeste 2.4 -- -- 100
2021-02-04 12:00:00 9.5 15 Noroeste 28 Noroeste 0.6 -- -- 99
2021-02-04 11:00:00 9.9 12 Oeste 27 Oeste 0.4 -- -- 100
2021-02-04 10:00:00 9.3 16 Noroeste 31 Noroeste 1.8 -- -- 99
2021-02-04 09:00:00 9.8 12 Noroeste 26 Noroeste 1.2 -- -- 100
2021-02-04 08:00:00 10 13 Noroeste 26 Noroeste 0.8 -- -- 100
2021-02-04 07:00:00 10.2 10 Noroeste 19 Oeste 0.4 -- -- 99
2021-02-04 06:00:00 10.1 12 Oeste 26 Oeste 0 -- -- 99
2021-02-04 05:00:00 9.8 15 Oeste 25 Oeste 0 -- -- 99
2021-02-04 04:00:00 9.7 11 Oeste 21 Oeste 0 -- -- 99
2021-02-04 03:00:00 9.6 12 Oeste 20 Oeste 0 -- -- 99
2021-02-04 02:00:00 9.8 11 Noroeste 21 Noroeste 0 -- -- 99
2021-02-04 01:00:00 9.8 14 Noroeste 24 Noroeste 0 -- -- 99
2021-02-04 00:00:00 10 14 Noroeste 23 Oeste 0 -- -- 98
2021-02-03 23:00:00 10 10 Noroeste 19 Noroeste 0 -- -- 98
2021-02-03 22:00:00 9.8 12 Noroeste 23 Noroeste 0 -- -- 98
2021-02-03 21:00:00 10 12 Noroeste 21 Noroeste 0 -- -- 98
2021-02-03 20:00:00 10.4 9 Noroeste 17 Noroeste 0 -- -- 97
2021-02-03 19:00:00 10.6 10 Noroeste 14 Noroeste 0 -- -- 97
2021-02-03 18:00:00 11.5 6 Noroeste 15 Norte 0 -- -- 95
2021-02-03 17:00:00 12.4 7 Noroeste 13 Oeste 0 -- -- 92
2021-02-03 16:00:00 13.4 6 Noroeste 13 Oeste 0 -- -- 88
2021-02-03 15:00:00 14.6 5 Norte 10 Norte 0 -- -- 83
2021-02-03 14:00:00 16.2 6 Norte 14 Sudeste 0 -- -- 77
2021-02-03 13:00:00 16.1 4 Norte 13 Norte 0 -- -- 78
2021-02-03 12:00:00 16.1 5 Noroeste 12 Noroeste 0 -- -- 75
2021-02-03 11:00:00 19.3 8 Este 15 Sudeste 0 -- -- 49
2021-02-03 10:00:00 16.8 6 Este 15 Sudeste 0 -- -- 50
2021-02-03 09:00:00 14.3 5 Noroeste 10 Noroeste 0 -- -- 48
2021-02-03 08:00:00 15.1 3 Norte 17 Sur 0 -- -- 41
2021-02-03 07:00:00 13.5 5 Sur 13 Sudoeste 0 -- -- 36
2021-02-03 06:00:00 15.2 6 Este 13 Norte 0 -- -- 33
2021-02-03 05:00:00 15.8 10 Sudeste 17 Sudeste 0 -- -- 33
2021-02-03 04:00:00 16.1 4 Sudeste 14 Sudeste 0 -- -- 27
2021-02-03 03:00:00 14.8 4 Nordeste 10 Este 0 -- -- 36
2021-02-03 02:00:00 15.2 6 Sudeste 11 Este 0 -- -- 33
2021-02-03 01:00:00 15.7 8 Noroeste 14 Noroeste 0 -- -- 37
2021-02-03 00:00:00 15.6 10 Oeste 13 Oeste 0 -- -- 41
2021-02-02 23:00:00 11.1 4 Sudeste 10 Sudeste 0 -- -- 63
2021-02-02 22:00:00 13.9 2 Oeste 9 Norte 0 -- -- 57
2021-02-02 21:00:00 14.5 6 Noroeste 12 Norte 0 -- -- 56
2021-02-02 20:00:00 14.8 8 Norte 10 Norte 0 -- -- 81
2021-02-02 19:00:00 15.2 3 Sudoeste 11 Norte 0 -- -- 84
2021-02-02 18:00:00 19.1 3 Oeste 8 Sudeste 0 -- -- 72
2021-02-02 17:00:00 18.3 8 Sudeste 12 Sudeste 0 -- -- 75
2021-02-02 16:00:00 22 6 Sudeste 12 Este 0 -- -- 64
2021-02-02 15:00:00 21.2 6 Norte 10 Norte 0 -- -- 65
2021-02-02 14:00:00 21.4 4 Este 11 Sudeste 0 -- -- 65
2021-02-02 13:00:00 21.6 6 Este 15 Sudeste 0 -- -- 63
2021-02-02 12:00:00 21.8 12 Sudeste 17 Este 0 -- -- 52
2021-02-02 11:00:00 21.4 11 Este 19 Sudeste 0 -- -- 24
2021-02-02 10:00:00 20.3 13 Sudeste 18 Sudeste 0 -- -- 25
2021-02-02 09:00:00 18 13 Sudeste 23 Sudeste 0 -- -- 24
2021-02-02 08:00:00 15.4 18 Sudeste 27 Sudeste 0 -- -- 26
2021-02-02 07:00:00 17.9 23 Sudeste 30 Sudeste 0 -- -- 18
2021-02-02 06:00:00 17 17 Sudeste 23 Sudeste 0 -- -- 19
2021-02-02 05:00:00 16.4 16 Sudeste 23 Sudeste 0 -- -- 19
2021-02-02 04:00:00 16.4 19 Sudeste 24 Sudeste 0 -- -- 25
2021-02-02 03:00:00 15.6 13 Sudeste 21 Este 0 -- -- 29
2021-02-02 02:00:00 16 13 Sudeste 18 Sudeste 0 -- -- 30
2021-02-02 01:00:00 14.6 14 Sudeste 18 Sudeste 0 -- -- 45
2021-02-02 00:00:00 14.2 13 Sudeste 17 Sudeste 0 -- -- 53
2021-02-01 23:00:00 13.7 15 Sudeste 22 Sudeste 0 -- -- 59
2021-02-01 22:00:00 13.5 17 Sudeste 21 Este 0 -- -- 66
2021-02-01 21:00:00 14.3 12 Sudeste 21 Sudeste 0 -- -- 57
2021-02-01 20:00:00 14.1 18 Sudeste 23 Sudeste 0 -- -- 66
2021-02-01 19:00:00 13.8 20 Sudeste 23 Sudeste 0 -- -- 73
2021-02-01 18:00:00 14.8 15 Sudeste 21 Sudeste 0 -- -- 84
2021-02-01 17:00:00 17 14 Sudeste 20 Sudeste 0 -- -- 75
2021-02-01 16:00:00 19.1 14 Este 26 Este 0 -- -- 63
2021-02-01 15:00:00 19.6 19 Este 37 Este 0 -- -- 47
2021-02-01 14:00:00 19.6 19 Sudeste 37 Sudeste 0 -- -- 47
2021-02-01 13:00:00 18.9 24 Sudeste 37 Este 0 -- -- 51
2021-02-01 12:00:00 18.2 24 Sudeste 38 Este 0 -- -- 52
2021-02-01 11:00:00 18.4 21 Sudeste 35 Sudeste 0 -- -- 52
2021-02-01 10:00:00 17.1 23 Sudeste 33 Sudeste 0 -- -- 53
2021-02-01 09:00:00 15.7 18 Sudeste 28 Sudeste 0 -- -- 57
2021-02-01 08:00:00 14.2 15 Sudeste 23 Sudeste 0 -- -- 59
2021-02-01 07:00:00 13.6 14 Sudeste 23 Sudeste 0 -- -- 62
2021-02-01 06:00:00 14.1 17 Sudeste 24 Sudeste 0 -- -- 59
2021-02-01 05:00:00 14 16 Sudeste 29 Sudeste 0 -- -- 60
2021-02-01 04:00:00 14 16 Sudeste 26 Sudeste 0 -- -- 61
2021-02-01 03:00:00 14.3 18 Sudeste 32 Sudeste 0 -- -- 60
2021-02-01 02:00:00 14.4 16 Sudeste 32 Sudeste 0 -- -- 59
2021-02-01 01:00:00 14.4 17 Sudeste 31 Sudeste 0 -- -- 59
2021-02-01 00:00:00 14.6 16 Sudeste 33 Sudeste 0 -- -- 59
2021-01-31 23:00:00 15.1 18 Sudeste 31 Sudeste 0 -- -- 56
2021-01-31 22:00:00 15.1 14 Sudeste 29 Sudeste 0 -- -- 52
2021-01-31 21:00:00 14.6 13 Sudeste 30 Sudeste 0 -- -- 52
2021-01-31 20:00:00 13.6 15 Este 27 Este 0 -- -- 58
2021-01-31 19:00:00 14.5 13 Este 28 Este 0 -- -- 50
2021-01-31 18:00:00 15.8 10 Este 26 Este 0 -- -- 42
2021-01-31 17:00:00 18.2 9 Este 32 Sudeste 0 -- -- 36
2021-01-31 16:00:00 19.2 9 Este 24 Este 0 -- -- 35
2021-01-31 15:00:00 20.1 3 Norte 12 Sudeste 0 -- -- 33
2021-01-31 14:00:00 20.6 5 Este 13 Sudeste 0 -- -- 45
2021-01-31 13:00:00 19.2 4 Norte 14 Sudeste 0 -- -- 26
2021-01-31 12:00:00 18.2 6 Este 18 Nordeste 0 -- -- 36
2021-01-31 11:00:00 17.7 5 Este 25 Sudeste 0 -- -- 44
2021-01-31 10:00:00 15.5 6 Este 27 Este 0 -- -- 39
2021-01-31 09:00:00 13.2 9 Sudeste 29 Este 0 -- -- 49
2021-01-31 08:00:00 9.9 4 Este 12 Sudeste 0 -- -- 99
2021-01-31 07:00:00 11.1 6 Sudeste 12 Sudeste 0.2 -- -- 100
2021-01-31 06:00:00 11.2 6 Sudeste 13 Este 0 -- -- 99
2021-01-31 05:00:00 10.8 8 Sudeste 16 Sur 0 -- -- 100
2021-01-31 04:00:00 11.4 5 Sudeste 13 Sudeste 0.2 -- -- 99
2021-01-31 03:00:00 11.3 8 Sur 18 Sudeste 0 -- -- 99
2021-01-31 02:00:00 10.9 6 Sur 13 Sudeste 0 -- -- 98
2021-01-31 01:00:00 9.9 3 Sur 13 Este 0 -- -- 98
2021-01-31 00:00:00 10.4 5 Nordeste 12 Nordeste 0 -- -- 97
2021-01-30 23:00:00 10.2 3 Norte 9 Sudeste 0 -- -- 94
2021-01-30 22:00:00 13.6 6 Sudeste 14 Este 0 -- -- 37
2021-01-30 21:00:00 15.1 8 Sudeste 13 Sudeste 0 -- -- 25
2021-01-30 20:00:00 15.5 3 Nordeste 13 Norte 0 -- -- 21
2021-01-30 19:00:00 16.8 2 Oeste 11 Sur 0 -- -- 26
2021-01-30 18:00:00 18.3 3 Noroeste 8 Norte 0 -- -- 60
2021-01-30 17:00:00 18.8 2 Oeste 7 Oeste 0 -- -- 68
2021-01-30 16:00:00 20.1 4 Norte 10 Norte 0 -- -- 59
2021-01-30 15:00:00 18.5 3 Nordeste 10 Sudeste 0 -- -- 71
2021-01-30 14:00:00 18.9 4 Nordeste 10 Norte 0 -- -- 69
2021-01-30 13:00:00 19.4 4 Norte 8 Norte 0 -- -- 65
2021-01-30 12:00:00 17.1 2 Noroeste 7 Norte 0 -- -- 72
2021-01-30 11:00:00 18.6 4 Norte 8 Norte 0 -- -- 56
2021-01-30 10:00:00 16.1 3 Noroeste 8 Sudoeste 0 -- -- 32
2021-01-30 09:00:00 11 6 Noroeste 12 Norte 0 -- -- 86
2021-01-30 08:00:00 15.2 3 Norte 18 Norte 0 -- -- 26
2021-01-30 07:00:00 16.7 6 Norte 12 Norte 0 -- -- 21
2021-01-30 06:00:00 16.9 4 Sudeste 10 Nordeste 0 -- -- 19
2021-01-30 05:00:00 17.1 4 Sudeste 12 Sur 0 -- -- 20
2021-01-30 04:00:00 15.5 0 Calma 8 Norte 0 -- -- 26
2021-01-30 03:00:00 14.4 4 Oeste 17 Noroeste 0 -- -- 35
2021-01-30 02:00:00 11.9 9 Noroeste 15 Noroeste 0 -- -- 90
2021-01-30 01:00:00 16.7 6 Oeste 14 Norte 0 -- -- 34
2021-01-30 00:00:00 18.9 4 Noroeste 10 Norte 0 -- -- 18
2021-01-29 23:00:00 19.1 4 Noroeste 9 Norte 0 -- -- 18
2021-01-29 22:00:00 19.4 4 Oeste 10 Noroeste 0 -- -- 18
2021-01-29 21:00:00 17.7 3 Norte 10 Norte 0 -- -- 23
2021-01-29 20:00:00 18.9 3 Sur 7 Sudeste 0 -- -- 20
2021-01-29 19:00:00 18 6 Sudeste 8 Sudeste 0 -- -- 33
2021-01-29 18:00:00 22 0 Calma 9 Norte 0 -- -- 39
2021-01-29 17:00:00 23.9 4 Norte 9 Noroeste 0 -- -- 44
2021-01-29 16:00:00 24.3 5 Sudeste 13 Este 0 -- -- 38
2021-01-29 15:00:00 23.7 9 Sudeste 18 Este 0 -- -- 28
2021-01-29 14:00:00 23.8 12 Sudeste 19 Este 0 -- -- 30
2021-01-29 13:00:00 23.2 8 Este 20 Este 0 -- -- 27
2021-01-29 12:00:00 22.8 14 Este 24 Este 0 -- -- 26
2021-01-29 11:00:00 22 15 Este 21 Sudeste 0 -- -- 25
2021-01-29 10:00:00 20.5 15 Sudeste 21 Sudeste 0 -- -- 24
2021-01-29 09:00:00 18.2 17 Sudeste 20 Sudeste 0 -- -- 23
2021-01-29 08:00:00 16.1 12 Sudeste 15 Este 0 -- -- 23
2021-01-29 07:00:00 16.3 13 Este 15 Sudeste 0 -- -- 23
2021-01-29 06:00:00 17.3 11 Sudeste 15 Sudeste 0 -- -- 20
2021-01-29 05:00:00 17.7 5 Sudeste 12 Sudeste 0 -- -- 18
2021-01-29 04:00:00 18 9 Sudeste 11 Sudeste 0 -- -- 18
2021-01-29 03:00:00 18.8 7 Sudeste 9 Sudeste 0 -- -- 17
2021-01-29 02:00:00 19.1 6 Sudeste 9 Sudeste 0 -- -- 16
2021-01-29 01:00:00 19.3 8 Sur 12 Sur 0 -- -- 16
2021-01-29 00:00:00 18.6 8 Sudeste 10 Sudeste 0 -- -- 20
2021-01-28 23:00:00 18.5 8 Sudeste 16 Sudeste 0 -- -- 20
2021-01-28 22:00:00 17.6 14 Sudeste 17 Sudeste 0 -- -- 25
2021-01-28 21:00:00 18 12 Sudeste 13 Sudeste 0 -- -- 23
2021-01-28 20:00:00 18.4 5 Este 6 Este 0 -- -- 20
2021-01-28 19:00:00 18.8 0 Calma 11 Oeste 0 -- -- 21
2021-01-28 18:00:00 20.9 7 Oeste 14 Oeste 0 -- -- 24
2021-01-28 17:00:00 22.8 9 Noroeste 16 Norte 0 -- -- 31
2021-01-28 16:00:00 24 8 Norte 14 Noroeste 0 -- -- 21
2021-01-28 15:00:00 23.7 6 Norte 14 Noroeste 0 -- -- 29
2021-01-28 14:00:00 24 8 Noroeste 13 Noroeste 0 -- -- 25
2021-01-28 13:00:00 24.7 6 Noroeste 11 Noroeste 0 -- -- 23
2021-01-28 12:00:00 24.2 4 Noroeste 8 Norte 0 -- -- 24
2021-01-28 11:00:00 24.1 4 Norte 8 Norte 0 -- -- 19
2021-01-28 10:00:00 22.2 3 Sudeste -- -- -- -- -- 25
2021-01-28 09:00:00 20.6 4 Sudeste 5 Sudeste 0 -- -- 32
2021-01-28 08:00:00 18.8 0 Calma 3 Sudeste 0 -- -- 23
2021-01-28 07:00:00 19.3 0 Calma 4 Noroeste 0 -- -- 23
2021-01-28 06:00:00 19.8 3 Oeste 6 Noroeste 0 -- -- 22
2021-01-28 05:00:00 19.6 3 Oeste 6 Noroeste 0 -- -- 21
2021-01-28 04:00:00 19.7 4 Noroeste 6 Noroeste 0 -- -- 21
2021-01-28 03:00:00 18.1 5 Norte 7 Noroeste 0 -- -- 24
2021-01-28 02:00:00 19.6 4 Noroeste 9 Noroeste 0 -- -- 22
2021-01-28 01:00:00 19.7 4 Sudoeste 14 Sudeste 0 -- -- 24
2021-01-28 00:00:00 18.3 13 Sudeste 19 Sudeste 0 -- -- 24